Flag for Germany Weather past 2 weeks in Bramsche, Lower Saxony, Germany

Now
41 °F

Light rain. Low clouds.


Feels Like: 34 °F
Forecast: 35 / 38 °F
Wind: 10 mph from Southwest

Location: Muenster / Osnabrueck

Current Time: Jan 28, 2015 at 6:12:54 PM

Latest Report: Jan 28, 2015 at 5:00 PM


Visibility: 4 mi

Pressure: 29.35 "Hg

Humidity: 91%

Dew point: 38 °F

Location of BramscheLocation

Historic Weather in Bramsche — Graph

°F

Bramsche temperature yesterday

Maximum temperature yesterday: 43 °F (at 2:00 PM)
Minimum temperature yesterday: 35 °F (at 9:00 AM)
Average temperature yesterday: 38 °F

Past Weeks' High & Low Weather Summary

 TemperatureHumidityPressure
High49 °F (Jan 15, 1:00 PM)100% (Jan 20, 10:00 AM)30.38 "Hg (Jan 20, 10:00 AM)
Low23 °F (Jan 21, 2:00 AM)59% (Jan 21, 2:00 PM)29.35 "Hg (Jan 28, 5:00 PM)
Average36 °F86%29.96 "Hg
* Reported Jan 13 5:00 PM — Jan 28 5:00 PM, Bramsche, Weather by CustomWeather, © 2014

Note: Actual official high and low records may vary slightly from our data, if they occured in-between our weather recording intervals... More about our weather records

Advertising

Bramsche weather history for previous 24 hours

 ConditionsComfort  
Time TempWeatherWind HumidityBarometerVisibility
5:00 PM
Jan 28
41 °FLight rain. Low clouds.10 mph91%29.35 "Hg4 mi
4:00 PM41 °FLight rain. Overcast.9 mph86%29.41 "Hg4 mi
3:00 PM44 °FOvercast.9 mph72%29.47 "Hg16 mi
2:00 PM44 °FOvercast.9 mph73%29.56 "Hg19 mi
1:00 PM43 °FOvercast.10 mph76%29.63 "Hg19 mi
12:00 PM42 °FOvercast.8 mph79%29.70 "Hg19 mi
11:00 AM41 °FOvercast.8 mph83%29.76 "Hg12 mi
10:00 AM40 °FOvercast.6 mph86%29.83 "Hg6 mi
9:00 AM40 °FLow clouds.6 mph90%29.87 "Hg5 mi
8:00 AM40 °FLow clouds.5 mph90%29.91 "Hg4 mi
7:00 AM39 °FRain. Low clouds.6 mph93%29.93 "Hg2 mi
6:00 AM39 °FFog.5 mph93%29.97 "Hg2 mi
5:00 AM38 °FLow clouds.5 mph94%29.99 "Hg3 mi
4:00 AM38 °FRain. Low clouds.3 mph95%30.04 "Hg3 mi
3:00 AM38 °FLow clouds.3 mph93%30.07 "Hg5 mi
2:00 AM38 °FLow clouds.3 mph91%30.10 "Hg5 mi
1:00 AM38 °FFog.3 mph95%30.12 "Hg4 mi
12:00 AM39 °FFog.2 mph94%30.13 "Hg3 mi
11:00 PM
Jan 27
38 °FFog.2 mph95%30.14 "Hg3 mi
10:00 PM38 °FLow clouds.2 mph94%30.16 "Hg5 mi
9:00 PM38 °FLow clouds.3 mph96%30.16 "Hg6 mi
8:00 PM38 °FLow clouds.3 mph94%30.16 "Hg9 mi
7:00 PM38 °FOvercast.3 mph93%30.17 "Hg9 mi
6:00 PM39 °FOvercast.2 mph91%30.16 "Hg9 mi
Weather by CustomWeather, © 2014

See weather overviewHow to use our weather pages